www.pogodaiklimat.ru

Погода и климат >> Архив погоды >> Ирландия >> Обсерватория Мейс-Хед


ПОГОДА в Обсерватории Мейс-Хед

  • Прогноз погоды в Обсерватории Мейс-Хед
  • Монитор погоды в Обсерватории Мейс-Хед

АРХИВ ПОГОДЫ в Обсерватории Мейс-Хед

Время (UTC), дата Ветер
(напр.,м/с)
 
Видим.   Явления Облачность Т
(С)
Тd
(С)
f
(%)
Тe
(С)
Тes
(С)
Комфортность P
(гПа)
Po
(гПа)
Тmin
(С)
Tmax
(С)
R
(мм)
R24
(мм)
S
(см)
10 15.05 ЮВ 9 35 км н/о +14.8 +6.9 59 +13 +13 1021.7 1018.9
11 15.05 ЮВ 10 35 км н/о +15.7 +7.3 57 +14 +14 1021.5 1018.7
12 15.05 Ю 5 24 км н/о +15.8 +9.3 65 +15 +15 1021.8 1019.0
13 15.05 ЮВ 7 20 км н/о +16.7 +10.0 65 +15 +15 1021.5 1018.7
14 15.05 ЮВ 6 21 км н/о +16.9 +10.3 65 +16 +16 1021.3 1018.6
15 15.05 ЮВ 6 20 км н/о +17.2 +10.3 64 +16 +16 1020.9 1018.1
16 15.05 ЮВ 6 13 км н/о +16.7 +10.7 68 +16 +16 1020.3 1017.5
17 15.05 ЮВ 6 16 км н/о +16.8 +10.2 65 +16 +16 1020.0 1017.2
18 15.05 ЮВ 7 17 км н/о +15.9 +9.2 64 +14 +14 1019.8 1017.0 +17.8
19 15.05 ЮВ 6 21 км н/о +14.8 +9.2 69 +13 +13 1019.5 1016.7
20 15.05 ЮВ 6 20 км н/о +14.0 +9.1 72 +12 +12 1019.5 1016.7
21 15.05 ЮВ 4 14 км н/о +13.1 +9.1 77 +11 +11 1020.1 1017.3
22 15.05 ЮВ 4 16 км н/о +12.8 +8.8 77 +11 +11 1020.1 1017.3
23 15.05 ЮВ 7 18 км н/о +12.3 +8.7 79 +9 +9 1019.8 1017.0
00 16.05 ЮВ 7 15 км н/о +11.9 +8.9 82 +9 +9 1019.6 1016.8
01 16.05 ЮВ 7 14 км н/о +11.8 +8.9 82 +9 +9 1019.4 1016.6
02 16.05 ЮВ 5 16 км н/о +11.5 +8.4 81 +9 +9 1019.1 1016.3
03 16.05 В 6 17 км н/о +11.4 +8.7 83 +8 +8 1018.6 1015.8
04 16.05 В 5 15 км н/о +11.1 +8.8 86 +8 +8 1018.3 1015.5
05 16.05 В 3 21 км н/о +11.0 +8.3 83 +9 +9 1018.2 1015.4
06 16.05 В 5 28 км н/о +11.2 +7.9 80 +9 +9 1018.1 1015.3 +10.9
07 16.05 В 5 15 км слаб. дождь н/о +10.9 +8.3 84 +8 +8 1018.2 1015.3
08 16.05 В 5 28 км слаб. морось {дождь} н/о +11.5 +8.5 82 +9 +9 1017.9 1015.0
09 16.05 В 4 25 км слаб. ливневой дождь н/о +12.1 +7.9 75 +10 +10 1017.8 1014.9
10 16.05 ЮВ 4 21 км слаб. ливневой дождь н/о +12.7 +8.4 75 +11 +11 1017.7 1014.9
11 16.05 В 5 30 км в посл. час дождь {ливн. осадки} н/о +14.4 +8.5 68 +13 +13 1017.2 1014.4
12 16.05 В 6 40 км в посл. час морось {ливн. осадки, дождь} н/о +14.1 +6.5 60 +12 +12 1016.8 1014.0 0.4
13 16.05 В 4 22 км слаб. ливневой дождь н/о +13.7 +8.0 68 +12 +12 1017.1 1014.3
14 16.05 ЮВ 4 9000 м дождь н/о +12.3 +9.0 80 +10 +10 1017.4 1014.6
15 16.05 Ю 2 19 км слаб. дождь н/о +12.0 +8.6 80 +11 +11 1016.7 1013.9
16 16.05 З 1 18 км слаб. ливневой дождь н/о +12.2 +8.2 77 +12 +12 1016.5 1013.7
17 16.05 СЗ 3 15 км слаб. дождь н/о +11.7 +8.5 81 +10 +10 1016.1 1013.3
18 16.05 СЗ 3 21 км слаб. дождь н/о +11.7 +8.3 80 +10 +10 1015.6 1012.8 +14.6 2
19 16.05 С 4 50 км морось {дождь} н/о +11.5 +8.7 83 +9 +9 1015.4 1012.6
20 16.05 С 4 18 км слаб. дождь н/о +11.2 +8.3 82 +9 +9 1015.5 1012.7
21 16.05 СВ 4 29 км слаб. дождь н/о +10.4 +8.4 87 +8 +8 1015.9 1013.0
22 16.05 СВ 3 13 км дождь н/о +9.8 +8.4 91 +7 +7 1016.1 1013.2
23 16.05 СВ 2 27 км слаб. дождь н/о +9.4 +8.3 93 +8 +8 1015.8 1013.0
00 17.05 СЗ 2 50 км в посл. час дождь н/о +9.8 +8.3 90 +8 +8 1015.3 1012.5 3
01 17.05 З 4 23 км морось н/о +10.2 +8.5 89 +7 +7 1015.1 1012.2
02 17.05 С 5 50 км в посл. час морось н/о +10.4 +8.2 86 +7 +7 1014.5 1011.7
03 17.05 СВ 4 35 км {морось} н/о +9.8 +8.3 90 +7 +7 1014.5 1011.6
04 17.05 СВ 1 45 км н/о +8.9 +7.8 93 +8 +8 1014.5 1011.7
05 17.05 В 2 40 км н/о +9.0 +7.5 90 +7 +7 1014.4 1011.6
06 17.05 СВ 3 20 км {морось} н/о +9.5 +7.9 90 +7 +7 1014.5 1011.7 +8.6 3
07 17.05 СВ 3 10 км н/о +10.9 +9.5 91 +9 +9 1014.5 1011.7
08 17.05 С 2 11 км н/о +12.1 +9.8 86 +11 +11 1014.5 1011.7
09 17.05 В 2 16 км н/о +13.6 +10.1 79 +13 +13 1014.5 1011.7
10 17.05 З 3 21 км н/о +12.8 +10.0 83 +11 +11 1014.4 1011.6
11 17.05 З 3 22 км н/о +13.5 +10.2 80 +12 +12 1014.5 1011.7
12 17.05 З 4 15 км н/о +14.1 +10.3 78 +13 +13 1014.3 1011.5
13 17.05 З 5 14 км н/о +14.1 +10.5 79 +12 +12 1014.2 1011.4
14 17.05 З 5 12 км в посл. час морось {ливн. осадки} н/о +14.3 +10.5 78 +13 +13 1014.0 1011.2
15 17.05 СЗ 7 12 км {ливн. осадки} н/о +13.4 +10.6 83 +11 +11 1013.5 1010.7
16 17.05 СЗ 7 13 км н/о +13.0 +10.4 84 +10 +10 1013.3 1010.5
17 17.05 СЗ 7 16 км н/о +13.0 +9.7 80 +10 +10 1012.9 1010.1
18 17.05 С 6 19 км {ливн. осадки} н/о +13.2 +9.9 80 +11 +11 1012.8 1010.0 +15.2 0.0
19 17.05 СВ 5 30 км н/о +13.3 +8.6 73 +11 +11 1013.2 1010.4
20 17.05 В 3 50 км слаб. морось н/о +12.3 +5.9 65 +11 +11 1013.5 1010.7
21 17.05 С 1 24 км слаб. ливневой дождь {морось} н/о +11.7 +7.2 74 +12 +12 1013.7 1010.9
22 17.05 СЗ 2 50 км в посл. час морось н/о +11.4 +7.8 79 +10 +10 1013.5 1010.7
23 17.05 СЗ 2 35 км н/о +11.4 +8.9 85 +10 +10 1013.5 1010.6
00 18.05 В 1 50 км в посл. час морось {ливн. осадки} н/о +10.6 +8.0 84 +10 +10 1013.1 1010.2 0.0
01 18.05 СЗ 2 22 км н/о +11.0 +8.6 85 +10 +10 1012.8 1009.9
02 18.05 С 2 45 км н/о +11.0 +8.2 83 +10 +10 1012.5 1009.7
03 18.05 С 5 30 км н/о +10.9 +8.7 86 +8 +8 1012.0 1009.2
04 18.05 СЗ 6 30 км слаб. ливневой дождь н/о +10.8 +8.9 88 +8 +8 1011.6 1008.8
05 18.05 С 7 40 км слаб. морось {дождь} н/о +10.5 +8.2 86 +7 +7 1011.6 1008.8
06 18.05 СЗ 7 40 км в посл. час морось {ливн. осадки, дождь} н/о +10.5 +8.3 86 +7 +7 1011.6 1008.8 +10.4 0.1
07 18.05 СЗ 6 35 км слаб. морось н/о +10.6 +8.2 85 +7 +7 1011.8 1008.9
08 18.05 С 6 30 км в посл. час морось {ливн. осадки} н/о +11.1 +8.3 83 +8 +8 1011.9 1009.1
09 18.05 С 7 30 км {ливн. осадки, морось} н/о +11.7 +8.4 80 +9 +9 1011.8 1009.0
10 18.05 С 7 45 км н/о +12.6 +8.1 74 +10 +10 1011.8 1009.0
11 18.05 С 7 35 км н/о +12.5 +7.6 72 +10 +10 1011.7 1008.9
12 18.05 С 6 45 км {ливн. осадки, морось} н/о +12.1 +8.4 78 +9 +9 1011.8 1009.0 0.0
13 18.05 С 6 40 км н/о +12.0 +8.1 77 +9 +9 1011.7 1008.9
14 18.05 СЗ 6 25 км н/о +12.1 +8.3 78 +9 +9 1011.8 1009.0
15 18.05 СЗ 8 22 км н/о +12.9 +8.2 73 +10 +10 1011.8 1009.0
16 18.05 СЗ 8 30 км н/о +12.7 +7.9 73 +10 +10 1011.9 1009.1
17 18.05 СЗ 9 30 км н/о +12.9 +8.5 75 +10 +10 1011.8 1009.0
18 18.05 СЗ 9 28 км н/о +12.0 +8.4 79 +9 +9 1012.0 1009.2 +13.3 0.0
19 18.05 СЗ 9 30 км н/о +11.4 +8.0 80 +8 +8 1012.1 1009.3
20 18.05 СЗ 8 40 км н/о +10.8 +7.8 82 +7 +7 1012.4 1009.6
21 18.05 СЗ 8 30 км н/о +10.7 +8.4 86 +7 +7 1012.7 1009.9
22 18.05 СЗ 7 30 км в посл. час морось н/о +10.7 +8.7 87 +7 +7 1013.0 1010.2
23 18.05 СЗ 7 12 км слаб. дождь н/о +10.6 +8.9 89 +7 +7 1013.1 1010.2
00 19.05 СЗ 7 30 км в посл. час дождь {ливн. осадки} н/о +10.3 +8.7 90 +7 +7 1013.1 1010.3 0.1
01 19.05 СЗ 8 18 км слаб. ливневой дождь н/о +10.1 +8.6 90 +6 +6 1013.0 1010.2
02 19.05 СЗ 7 30 км в посл. час дождь {ливн. осадки} н/о +10.0 +8.1 88 +6 +6 1013.2 1010.4
03 19.05 СЗ 8 30 км {ливн. осадки} н/о +9.8 +7.3 84 +6 +6 1013.1 1010.3
04 19.05 СЗ 8 35 км н/о +9.5 +7.0 84 +5 +5 1013.2 1010.4
05 19.05 СЗ 7 40 км н/о +9.4 +6.9 84 +5 +5 1013.5 1010.6
06 19.05 СЗ 7 30 км {ливн. осадки} н/о +9.7 +6.9 83 +6 +6 1013.6 1010.8 +9.2 0.1
07 19.05 СЗ 8 30 км н/о +10.5 +6.6 77 +7 +7 1013.8 1011.0
08 19.05 СЗ 8 30 км н/о +11.2 +7.0 75 +8 +8 1014.1 1011.2
09 19.05 СЗ 9 35 км н/о +12.0 +7.6 74 +9 +9 1014.2 1011.3
10 19.05 СЗ 8 30 км н/о +12.9 +7.4 69 +10 +10 1014.1 1011.3
11 19.05 СЗ 9 30 км н/о +13.3 +7.1 66 +10 +10 1014.1 1011.3
12 19.05 СЗ 8 30 км н/о +13.9 +7.4 65 +11 +11 1014.5 1011.7
13 19.05 СЗ 9 35 км н/о +13.7 +6.8 63 +11 +11 1014.7 1011.9
14 19.05 СЗ 8 30 км н/о +14.2 +7.6 64 +12 +12 1015.0 1012.2
15 19.05 СЗ 8 30 км н/о +14.0 +7.2 64 +12 +12 1015.0 1012.2
16 19.05 СЗ 8 30 км н/о +13.4 +7.2 66 +11 +11 1014.9 1012.1
17 19.05 СЗ 8 35 км н/о +12.6 +7.4 71 +10 +10 1015.0 1012.2
18 19.05 СЗ 7 40 км н/о +12.4 +6.1 65 +10 +10 1014.9 1012.1 +14.5
19 19.05 С 8 35 км н/о +11.7 +5.8 67 +8 +8 1015.1 1012.3
20 19.05 СЗ 7 45 км н/о +10.9 +6.5 74 +8 +8 1015.3 1012.5
21 19.05 СЗ 5 50 км н/о +10.2 +6.9 80 +7 +7 1015.7 1012.8
22 19.05 С 5 40 км н/о +9.9 +7.0 82 +7 +7 1015.9 1013.1
23 19.05 С 4 40 км н/о +9.5 +6.9 84 +7 +7 1016.1 1013.2
00 20.05 СЗ 4 40 км н/о +9.2 +6.7 84 +6 +6 1016.0 1013.2
01 20.05 С 4 35 км н/о +9.1 +7.2 88 +6 +6 1015.9 1013.1
02 20.05 СЗ 4 35 км н/о +8.8 +6.8 87 +6 +6 1015.8 1013.0
03 20.05 С 3 30 км н/о +8.8 +7.0 88 +6 +6 1015.7 1012.9
04 20.05 СВ 2 35 км н/о +6.7 +5.4 91 +4 +4 1015.7 1012.9
05 20.05 СВ 1 50 км н/о +7.0 +6.1 94 +6 +6 1015.9 1013.0
06 20.05 С 1 40 км н/о +8.8 +6.8 87 +8 +8 1016.3 1013.5 +6.0
07 20.05 С 1 30 км н/о +10.5 +7.1 79 +10 +10 1016.7 1013.9
08 20.05 СЗ 1 45 км н/о +11.0 +6.9 76 +11 +11 1017.0 1014.1
09 20.05 Ю 2 35 км н/о +11.9 +6.8 71 +11 +11 1017.1 1014.2
10 20.05 ЮЗ 3 35 км н/о +12.2 +7.3 72 +11 +11 1017.2 1014.4
11 20.05 ЮЗ 4 35 км н/о +12.5 +7.0 69 +11 +11 1017.3 1014.5
12 20.05 ЮЗ 4 30 км н/о +13.5 +7.4 67 +12 +12 1017.4 1014.6
13 20.05 З 5 30 км н/о +14.1 +7.3 64 +12 +12 1017.5 1014.7
14 20.05 СЗ 6 40 км н/о +14.5 +6.4 58 +13 +13 1017.5 1014.7
15 20.05 З 6 45 км н/о +14.0 +5.7 57 +12 +12 1017.7 1014.9
16 20.05 СЗ 6 40 км н/о +14.7 +6.3 57 +13 +13 1017.7 1014.9
17 20.05 СЗ 4 45 км н/о +14.7 +5.9 56 +14 +14 1017.8 1015.0
18 20.05 СЗ 2 35 км н/о +14.7 +5.1 53 +15 +15 1017.7 1014.9 +15.1
19 20.05 С 3 50 км н/о +14.3 +5.1 54 +14 +14 1017.7 1014.9
20 20.05 С 3 45 км н/о +13.0 +6.4 64 +12 +12 1018.0 1015.2
21 20.05 СВ 1 50 км н/о +10.7 +5.6 71 +11 +11 1018.8 1015.9
22 20.05 В 3 50 км н/о +8.6 +4.5 75 +6 +6 1019.0 1016.1
23 20.05 В 4 50 км н/о +7.9 +4.1 77 +5 +5 1019.1 1016.3
00 21.05 В 4 50 км н/о +8.8 +4.7 75 +6 +6 1019.5 1016.6
01 21.05 В 3 50 км н/о +8.1 +4.8 80 +5 +5 1019.5 1016.6
02 21.05 В 2 50 км н/о +7.4 +4.1 80 +5 +5 1019.6 1016.7
03 21.05 В 2 50 км н/о +7.4 +4.5 82 +5 +5 1019.6 1016.8
04 21.05 штиль 0 50 км н/о +7.4 +4.5 82 +7 +7 1019.7 1016.8
05 21.05 В 1 50 км н/о +7.5 +4.7 82 +7 +7 1019.9 1017.0
06 21.05 В 3 50 км н/о +9.3 +7.0 86 +7 +7 1020.0 1017.2 +7.1
07 21.05 В 4 45 км н/о +11.0 +7.0 76 +9 +9 1020.2 1017.4
08 21.05 В 4 40 км н/о +11.8 +6.6 70 +10 +10 1020.6 1017.8
09 21.05 ЮВ 3 35 км н/о +13.3 +7.6 68 +12 +12 1020.6 1017.8
10 21.05 Ю 3 40 км н/о +13.8 +7.9 68 +13 +13 1020.6 1017.8
11 21.05 Ю 3 35 км н/о +13.6 +8.4 71 +13 +13 1020.8 1018.0
12 21.05 Ю 3 35 км н/о +13.4 +8.5 72 +12 +12 1020.9 1018.1
13 21.05 ЮЗ 3 45 км н/о +13.8 +8.7 71 +13 +13 1021.1 1018.3
14 21.05 ЮЗ 3 40 км н/о +13.6 +8.6 72 +13 +13 1021.0 1018.2
15 21.05 З 4 45 км н/о +13.9 +9.5 75 +12 +12 1020.8 1018.0
16 21.05 З 4 30 км н/о +14.1 +9.2 72 +13 +13 1020.7 1017.9
17 21.05 З 5 40 км н/о +14.2 +7.8 65 +13 +13 1020.6 1017.8
18 21.05 З 4 40 км н/о +13.3 +7.4 67 +12 +12 1020.7 1017.9 +14.7
19 21.05 З 4 50 км н/о +12.1 +7.5 73 +10 +10 1020.6 1017.8
20 21.05 З 4 50 км н/о +11.7 +7.4 75 +10 +10 1020.6 1017.8
21 21.05 З 4 50 км н/о +11.4 +7.3 76 +9 +9 1020.9 1018.0
22 21.05 З 3 50 км н/о +11.3 +7.5 77 +10 +10 1021.0 1018.2
23 21.05 З 2 50 км н/о +11.2 +7.5 78 +10 +10 1020.8 1017.9
00 22.05 СЗ 1 50 км н/о +10.9 +7.5 80 +11 +11 1020.7 1017.8
01 22.05 В 1 50 км н/о +10.5 +7.6 82 +10 +10 1020.4 1017.6
02 22.05 В 2 50 км н/о +9.6 +7.5 87 +8 +8 1020.2 1017.4
03 22.05 В 2 50 км н/о +9.1 +7.3 88 +7 +7 1020.0 1017.1
04 22.05 В 1 50 км н/о +9.7 +7.5 86 +9 +9 1019.8 1016.9
05 22.05 В 2 50 км н/о +9.2 +7.4 88 +7 +7 1019.6 1016.8
06 22.05 В 3 50 км н/о +10.5 +8.8 89 +8 +8 1019.4 1016.6 +9.0
07 22.05 ЮВ 4 50 км н/о +11.4 +9.1 86 +9 +9 1019.4 1016.6
08 22.05 ЮВ 3 50 км н/о +11.9 +9.6 86 +10 +10 1019.6 1016.8
09 22.05 Ю 4 30 км н/о +12.6 +10.3 86 +11 +11 1019.5 1016.7
10 22.05 Ю 5 40 км н/о +13.2 +10.2 82 +11 +11 1019.4 1016.6
11 22.05 Ю 4 40 км н/о +13.5 +9.9 79 +12 +12 1019.3 1016.5

 

Местоположение метеостанции Обсерватория Мейс-Хед (Ирландия): широта 53.32 долгота -9.90 высота над уровнем моря 21 м.

В архиве по умолчанию представлена погода в Обсерватории Мейс-Хед за последнюю неделю. Архивные данные за месяц целиком и за предыдущие месяцы, начиная с января 2011 года, Вы можете получить, выбрав интересующий диапазон дат из раскрывающегося списка и нажав кнопку "Ввод!".


*Определитесь, кто Вы:
робот инопланетянин человек

Внимание! Время в таблицах - всемирное. Для получения местного времени необходимо прибавить поправку, которая равна 0 ч.

Смотрите также архив погоды в соседних городах и на ближайших метеорологических станциях:

Погода в Крэрморрисе (Ирландия) (74 км)
Погода в Аэропорту Шэннон (Ирландия) (96 км)
Погода в Аэропорту Нок (Ирландия) (97 км)
Погода в Белмаллете (Ирландия) (101 км)
Погода в Гортине (Ирландия) (130 км)
Погода в Обсерватории Валентия (Ирландия) (156 км)
Погода на Финнер-роуд (Ирландия) (170 км)
Погода в Муллингаре (Ирландия) (170 км)
Погода в Томастауне (Великобритания) (189 км)
Погода в Баллихейзе (Ирландия) (189 км)

Пояснения к столбцам:

Ветер - указаны скорость ветра в м/с - средняя за 10 мин, порывы в срок и между сроками (в фигурных скобках) и направление, откуда дует ветер: С - северный, СВ - северо-восточный, В - восточный, ЮВ - юго-восточный, Ю - южный, ЮЗ - юго-западный, З - западный, СЗ - северо-западный.
Видимость - горизонтальная дальность видимости в метрах или километрах. При видимости от 1 до 10 км при отсутствии осадков обычно наблюдается дымка, при ухудшении видимости до 1 км и менее - туман. В сухую погоду видимость может ухудшаться дымом, пылью или мглою.
Явления - указаны атмосферные явления, наблюдавшиеся в срок или в последний час перед сроком; фигурными скобками обозначены явления, наблюдавшиеся между сроками (за 1-3 часа до срока); квадратными скобками обозначены град или гололедные отложения с указанием их диаметра в мм.
Облачность - указаны через наклонную черту общая и нижняя облачность в баллах и высота нижней границы облаков в метрах; квадратными скобками обозначены формы облаков: Ci - перистые, Cs - перисто-слоистые, Cc - перисто-кучевые, Ac - высококучевые, As - высокослоистые, Sc - слоисто-кучевые, Ns - слоисто-дождевые, Cu - кучевые, Cb - кучево-дождевые. Подробнее классификацию облаков см. в Атласе облаков (PDF).
T - Температура воздуха - температура, измеренная на высоте 2 м над землей.
Td - Температура точки росы - температура, при понижении до которой содержащийся в воздухе водяной пар достигнет насыщения.
f - Относительная влажность воздуха - влажноcть воздуха, измеренная на высоте 2 м над землей.
Te - Эффективная температура - температура, которую ощущает одетый по сезону человек в тени. Характеристика душности погоды. При расчете учитывается влияние влажности воздуха и скорости ветра на теплоощущения человека.
Tes - Эффективная температура на солнце - температура, которую ощущает человек, с поправкой на солнечный нагрев. Характеристика знойности погоды. Зависит от высоты солнца над горизонтом, облачности и скорости ветра. Ночью, в пасмурную погоду, а также при ветре 12 м/с и более поправка равна нулю.
P - Атмосферное давление - приведенное к уровню моря атмосферное давление.
Po - Атмосферное давление - измеренное на уровне метеостанции атмосферное давление.
Tmin - Минимальная температура - минимум температуры воздуха на высоте 2 м над землей.
Tmax - Максимальная температура - максимум температуры воздуха на высоте 2 м над землей.
R - Количество осадков - Количество выпавших осадков за период времени, мм. При наведении курсора мыши на число - период времени, за который выпало указанное количество осадков.
R24 - Количество осадков - Количество выпавших осадков за 24 часа, мм.
S - Снежный покров - Высота снежного покрова, см. При наведении курсора мыши на число - состояние снежного покрова и степень покрытия местности в баллах.